﻿測定場所 (Monitoring sites),日付 (Measurement date),時間 (Measurement time),線量率 最大値 (max) μGy/h,線量率 最小値 (min) μGy/h,線量率 平均値 (average) μGy/h,
小平 (Kodaira),2012-10-21,23:01～24:00,0.0405,0.0355,0.0376,
小平 (Kodaira),2012-10-21,22:01～23:00,0.0404,0.0350,0.0376,
小平 (Kodaira),2012-10-21,21:01～22:00,0.0408,0.0350,0.0374,
小平 (Kodaira),2012-10-21,20:01～21:00,0.0406,0.0352,0.0372,
小平 (Kodaira),2012-10-21,19:01～20:00,0.0413,0.0334,0.0369,
小平 (Kodaira),2012-10-21,18:01～19:00,0.0390,0.0351,0.0370,
小平 (Kodaira),2012-10-21,17:01～18:00,0.0395,0.0345,0.0362,
小平 (Kodaira),2012-10-21,16:01～17:00,0.0400,0.0343,0.0366,
小平 (Kodaira),2012-10-21,15:01～16:00,0.0390,0.0352,0.0367,
小平 (Kodaira),2012-10-21,14:01～15:00,0.0401,0.0349,0.0367,
小平 (Kodaira),2012-10-21,13:01～14:00,0.0394,0.0345,0.0364,
小平 (Kodaira),2012-10-21,12:01～13:00,0.0398,0.0342,0.0367,
小平 (Kodaira),2012-10-21,11:01～12:00,0.0399,0.0352,0.0371,
小平 (Kodaira),2012-10-21,10:01～11:00,0.0411,0.0352,0.0374,
小平 (Kodaira),2012-10-21,09:01～10:00,0.0416,0.0352,0.0376,
小平 (Kodaira),2012-10-21,08:01～09:00,0.0417,0.0355,0.0377,
小平 (Kodaira),2012-10-21,07:01～08:00,0.0423,0.0358,0.0382,
小平 (Kodaira),2012-10-21,06:01～07:00,0.0433,0.0356,0.0380,
小平 (Kodaira),2012-10-21,05:01～06:00,0.0407,0.0348,0.0375,
小平 (Kodaira),2012-10-21,04:01～05:00,0.0405,0.0356,0.0378,
小平 (Kodaira),2012-10-21,03:01～04:00,0.0417,0.0364,0.0378,
小平 (Kodaira),2012-10-21,02:01～03:00,0.0424,0.0360,0.0378,
小平 (Kodaira),2012-10-21,01:01～02:00,0.0413,0.0347,0.0374,
小平 (Kodaira),2012-10-21,00:01～01:00,0.0421,0.0358,0.0377,
小平 (Kodaira),2012-10-20,23:01～24:00,0.0404,0.0356,0.0374,
小平 (Kodaira),2012-10-20,22:01～23:00,0.0395,0.0352,0.0373,
小平 (Kodaira),2012-10-20,21:01～22:00,0.0403,0.0345,0.0371,
小平 (Kodaira),2012-10-20,20:01～21:00,0.0397,0.0349,0.0368,
小平 (Kodaira),2012-10-20,19:01～20:00,0.0385,0.0334,0.0363,
小平 (Kodaira),2012-10-20,18:01～19:00,0.0379,0.0343,0.0362,
小平 (Kodaira),2012-10-20,17:01～18:00,0.0386,0.0334,0.0364,
小平 (Kodaira),2012-10-20,16:01～17:00,0.0397,0.0334,0.0362,
小平 (Kodaira),2012-10-20,15:01～16:00,0.0403,0.0343,0.0367,
小平 (Kodaira),2012-10-20,14:01～15:00,0.0386,0.0344,0.0364,
小平 (Kodaira),2012-10-20,13:01～14:00,0.0378,0.0344,0.0365,
小平 (Kodaira),2012-10-20,12:01～13:00,0.0401,0.0351,0.0369,
小平 (Kodaira),2012-10-20,11:01～12:00,0.0401,0.0348,0.0367,
小平 (Kodaira),2012-10-20,10:01～11:00,0.0405,0.0360,0.0376,
小平 (Kodaira),2012-10-20,09:01～10:00,0.0419,0.0350,0.0376,
小平 (Kodaira),2012-10-20,08:01～09:00,0.0412,0.0358,0.0381,
小平 (Kodaira),2012-10-20,07:01～08:00,0.0431,0.0362,0.0384,
小平 (Kodaira),2012-10-20,06:01～07:00,0.0401,0.0359,0.0379,
小平 (Kodaira),2012-10-20,05:01～06:00,0.0411,0.0358,0.0378,
小平 (Kodaira),2012-10-20,04:01～05:00,0.0408,0.0356,0.0379,
小平 (Kodaira),2012-10-20,03:01～04:00,0.0410,0.0351,0.0376,
小平 (Kodaira),2012-10-20,02:01～03:00,0.0405,0.0359,0.0378,
小平 (Kodaira),2012-10-20,01:01～02:00,0.0408,0.0346,0.0373,
小平 (Kodaira),2012-10-20,00:01～01:00,0.0408,0.0355,0.0374,
小平 (Kodaira),2012-10-19,23:01～24:00,0.0391,0.0349,0.0369,
小平 (Kodaira),2012-10-19,22:01～23:00,0.0391,0.0339,0.0364,
小平 (Kodaira),2012-10-19,21:01～22:00,0.0394,0.0348,0.0365,
小平 (Kodaira),2012-10-19,20:01～21:00,0.0400,0.0348,0.0366,
小平 (Kodaira),2012-10-19,19:01～20:00,0.0394,0.0347,0.0366,
小平 (Kodaira),2012-10-19,18:01～19:00,0.0381,0.0339,0.0361,
小平 (Kodaira),2012-10-19,17:01～18:00,0.0382,0.0349,0.0363,
小平 (Kodaira),2012-10-19,16:01～17:00,0.0386,0.0340,0.0363,
小平 (Kodaira),2012-10-19,15:01～16:00,0.0392,0.0340,0.0365,
小平 (Kodaira),2012-10-19,14:01～15:00,0.0385,0.0344,0.0365,
小平 (Kodaira),2012-10-19,13:01～14:00,0.0401,0.0342,0.0365,
小平 (Kodaira),2012-10-19,12:01～13:00,0.0412,0.0349,0.0367,
小平 (Kodaira),2012-10-19,11:01～12:00,0.0400,0.0349,0.0367,
小平 (Kodaira),2012-10-19,10:01～11:00,0.0387,0.0347,0.0364,
小平 (Kodaira),2012-10-19,09:01～10:00,0.0404,0.0344,0.0367,
小平 (Kodaira),2012-10-19,08:01～09:00,0.0398,0.0344,0.0366,
小平 (Kodaira),2012-10-19,07:01～08:00,0.0396,0.0346,0.0368,
小平 (Kodaira),2012-10-19,06:01～07:00,0.0393,0.0353,0.0368,
小平 (Kodaira),2012-10-19,05:01～06:00,0.0414,0.0352,0.0380,
小平 (Kodaira),2012-10-19,04:01～05:00,0.0474,0.0373,0.0422,
小平 (Kodaira),2012-10-19,03:01～04:00,0.0626,0.0449,0.0530,
小平 (Kodaira),2012-10-19,02:01～03:00,0.0621,0.0530,0.0575,
小平 (Kodaira),2012-10-19,01:01～02:00,0.0592,0.0504,0.0547,
小平 (Kodaira),2012-10-19,00:01～01:00,0.0552,0.0456,0.0500,
小平 (Kodaira),2012-10-18,23:01～24:00,0.0505,0.0434,0.0469,
小平 (Kodaira),2012-10-18,22:01～23:00,0.0572,0.0477,0.0524,
小平 (Kodaira),2012-10-18,21:01～22:00,0.0559,0.0423,0.0484,
小平 (Kodaira),2012-10-18,20:01～21:00,0.0477,0.0409,0.0444,
小平 (Kodaira),2012-10-18,19:01～20:00,0.0490,0.0364,0.0411,
小平 (Kodaira),2012-10-18,18:01～19:00,0.0408,0.0349,0.0371,
小平 (Kodaira),2012-10-18,17:01～18:00,0.0410,0.0344,0.0371,
小平 (Kodaira),2012-10-18,16:01～17:00,0.0408,0.0353,0.0373,
小平 (Kodaira),2012-10-18,15:01～16:00,0.0414,0.0360,0.0379,
小平 (Kodaira),2012-10-18,14:01～15:00,0.0433,0.0373,0.0401,
小平 (Kodaira),2012-10-18,13:01～14:00,0.0428,0.0365,0.0399,
小平 (Kodaira),2012-10-18,12:01～13:00,0.0407,0.0354,0.0371,
小平 (Kodaira),2012-10-18,11:01～12:00,0.0413,0.0353,0.0375,
小平 (Kodaira),2012-10-18,10:01～11:00,0.0398,0.0349,0.0371,
小平 (Kodaira),2012-10-18,09:01～10:00,0.0405,0.0347,0.0375,
小平 (Kodaira),2012-10-18,08:01～09:00,0.0418,0.0357,0.0386,
小平 (Kodaira),2012-10-18,07:01～08:00,0.0428,0.0358,0.0384,
小平 (Kodaira),2012-10-18,06:01～07:00,0.0410,0.0358,0.0377,
小平 (Kodaira),2012-10-18,05:01～06:00,0.0415,0.0357,0.0374,
小平 (Kodaira),2012-10-18,04:01～05:00,0.0396,0.0352,0.0370,
小平 (Kodaira),2012-10-18,03:01～04:00,0.0397,0.0350,0.0373,
小平 (Kodaira),2012-10-18,02:01～03:00,0.0407,0.0353,0.0373,
小平 (Kodaira),2012-10-18,01:01～02:00,0.0411,0.0350,0.0375,
小平 (Kodaira),2012-10-18,00:01～01:00,0.0428,0.0364,0.0386,
小平 (Kodaira),2012-10-17,23:01～24:00,0.0408,0.0355,0.0375,
小平 (Kodaira),2012-10-17,22:01～23:00,0.0438,0.0371,0.0400,
小平 (Kodaira),2012-10-17,21:01～22:00,0.0435,0.0368,0.0396,
小平 (Kodaira),2012-10-17,20:01～21:00,0.0437,0.0367,0.0398,
小平 (Kodaira),2012-10-17,19:01～20:00,0.0464,0.0390,0.0421,
小平 (Kodaira),2012-10-17,18:01～19:00,0.0488,0.0419,0.0453,
小平 (Kodaira),2012-10-17,17:01～18:00,0.0493,0.0431,0.0460,
小平 (Kodaira),2012-10-17,16:01～17:00,0.0486,0.0354,0.0414,
小平 (Kodaira),2012-10-17,15:01～16:00,0.0393,0.0344,0.0368,
小平 (Kodaira),2012-10-17,14:01～15:00,0.0398,0.0353,0.0370,
小平 (Kodaira),2012-10-17,13:01～14:00,0.0408,0.0353,0.0371,
小平 (Kodaira),2012-10-17,12:01～13:00,0.0416,0.0351,0.0373,
小平 (Kodaira),2012-10-17,11:01～12:00,0.0413,0.0359,0.0379,
小平 (Kodaira),2012-10-17,10:01～11:00,0.0423,0.0353,0.0382,
小平 (Kodaira),2012-10-17,09:01～10:00,0.0417,0.0356,0.0382,
小平 (Kodaira),2012-10-17,08:01～09:00,0.0432,0.0360,0.0388,
小平 (Kodaira),2012-10-17,07:01～08:00,0.0422,0.0362,0.0390,
小平 (Kodaira),2012-10-17,06:01～07:00,0.0404,0.0360,0.0381,
小平 (Kodaira),2012-10-17,05:01～06:00,0.0411,0.0362,0.0378,
小平 (Kodaira),2012-10-17,04:01～05:00,0.0404,0.0365,0.0379,
小平 (Kodaira),2012-10-17,03:01～04:00,0.0408,0.0352,0.0377,
小平 (Kodaira),2012-10-17,02:01～03:00,0.0418,0.0355,0.0382,
小平 (Kodaira),2012-10-17,01:01～02:00,0.0423,0.0361,0.0386,
小平 (Kodaira),2012-10-17,00:01～01:00,0.0407,0.0352,0.0376,
小平 (Kodaira),2012-10-16,23:01～24:00,0.0400,0.0354,0.0373,
小平 (Kodaira),2012-10-16,22:01～23:00,0.0405,0.0358,0.0375,
小平 (Kodaira),2012-10-16,21:01～22:00,0.0422,0.0349,0.0375,
小平 (Kodaira),2012-10-16,20:01～21:00,0.0408,0.0345,0.0374,
小平 (Kodaira),2012-10-16,19:01～20:00,0.0394,0.0348,0.0366,
小平 (Kodaira),2012-10-16,18:01～19:00,0.0394,0.0344,0.0367,
小平 (Kodaira),2012-10-16,17:01～18:00,0.0397,0.0350,0.0367,
小平 (Kodaira),2012-10-16,16:01～17:00,0.0402,0.0347,0.0369,
小平 (Kodaira),2012-10-16,15:01～16:00,0.0398,0.0350,0.0371,
小平 (Kodaira),2012-10-16,14:01～15:00,0.0404,0.0352,0.0372,
小平 (Kodaira),2012-10-16,13:01～14:00,0.0398,0.0354,0.0370,
小平 (Kodaira),2012-10-16,12:01～13:00,0.0411,0.0349,0.0378,
小平 (Kodaira),2012-10-16,11:01～12:00,0.0409,0.0353,0.0374,
小平 (Kodaira),2012-10-16,10:01～11:00,0.0412,0.0350,0.0378,
小平 (Kodaira),2012-10-16,09:01～10:00,0.0407,0.0349,0.0375,
小平 (Kodaira),2012-10-16,08:01～09:00,0.0407,0.0354,0.0377,
小平 (Kodaira),2012-10-16,07:01～08:00,0.0405,0.0354,0.0374,
小平 (Kodaira),2012-10-16,06:01～07:00,0.0427,0.0349,0.0381,
小平 (Kodaira),2012-10-16,05:01～06:00,0.0402,0.0356,0.0376,
小平 (Kodaira),2012-10-16,04:01～05:00,0.0415,0.0358,0.0375,
小平 (Kodaira),2012-10-16,03:01～04:00,0.0413,0.0353,0.0372,
小平 (Kodaira),2012-10-16,02:01～03:00,0.0397,0.0341,0.0369,
小平 (Kodaira),2012-10-16,01:01～02:00,0.0394,0.0352,0.0370,
小平 (Kodaira),2012-10-16,00:01～01:00,0.0409,0.0350,0.0372,
小平 (Kodaira),2012-10-15,23:01～24:00,0.0396,0.0344,0.0370,
小平 (Kodaira),2012-10-15,22:01～23:00,0.0402,0.0350,0.0370,
小平 (Kodaira),2012-10-15,21:01～22:00,0.0412,0.0347,0.0370,
小平 (Kodaira),2012-10-15,20:01～21:00,0.0393,0.0350,0.0371,
小平 (Kodaira),2012-10-15,19:01～20:00,0.0397,0.0350,0.0371,
小平 (Kodaira),2012-10-15,18:01～19:00,0.0394,0.0350,0.0371,
小平 (Kodaira),2012-10-15,17:01～18:00,0.0391,0.0350,0.0368,
小平 (Kodaira),2012-10-15,16:01～17:00,0.0410,0.0353,0.0372,
小平 (Kodaira),2012-10-15,15:01～16:00,0.0395,0.0342,0.0370,
小平 (Kodaira),2012-10-15,14:01～15:00,0.0401,0.0352,0.0371,
小平 (Kodaira),2012-10-15,13:01～14:00,0.0401,0.0351,0.0370,
小平 (Kodaira),2012-10-15,12:01～13:00,0.0417,0.0358,0.0375,
小平 (Kodaira),2012-10-15,11:01～12:00,0.0402,0.0353,0.0375,
小平 (Kodaira),2012-10-15,10:01～11:00,0.0410,0.0360,0.0381,
小平 (Kodaira),2012-10-15,09:01～10:00,0.0417,0.0359,0.0383,
小平 (Kodaira),2012-10-15,08:01～09:00,0.0420,0.0357,0.0384,
小平 (Kodaira),2012-10-15,07:01～08:00,0.0425,0.0361,0.0385,
小平 (Kodaira),2012-10-15,06:01～07:00,0.0430,0.0364,0.0382,
小平 (Kodaira),2012-10-15,05:01～06:00,0.0414,0.0368,0.0388,
小平 (Kodaira),2012-10-15,04:01～05:00,0.0415,0.0361,0.0380,
小平 (Kodaira),2012-10-15,03:01～04:00,0.0411,0.0361,0.0379,
小平 (Kodaira),2012-10-15,02:01～03:00,0.0409,0.0351,0.0376,
小平 (Kodaira),2012-10-15,01:01～02:00,0.0400,0.0360,0.0373,
小平 (Kodaira),2012-10-15,00:01～01:00,0.0402,0.0350,0.0373,
